Theta_e
283 283 284 285 285 283 284 287 285 287 283 284 285 286 288 289 289 289 289 290 290 290 291 290 289 289 288 288 288 288 287 287 287 286 286 285 285 284 284 284 284 284 283 283
278 284 283 282 285 286 285 285 282 281 282 286 286 287 288 289 289 290 290 291 291 291 291 291 290 289 289 288 287 287 287 286 286 285 284 284 284 283 283 283 283 283 282 282
278 280 282 278 281 284 285 287 286 284 287 288 287 287 287 288 288 289 291 291 291 292 292 292 291 291 289 289 287 286 286 284 284 284 283 283 284 283 282 282 282 282 282 281
277 277 272 281 282 285 286 287 289 289 287 289 290 292 289 288 288 289 290 291 292 293 292 292 291 290 290 287 286 285 284 284 284 283 283 282 282 282 282 282 281 281 281 281
277 269 278 280 282 283 282 283 287 286 289 289 288 287 287 290 290 292 291 292 293 294 293 291 291 289 288 286 285 285 285 284 284 283 282 282 282 282 282 281 281 281 281 280
275 271 269 279 282 285 285 278 284 287 288 287 286 284 289 291 290 291 292 291 291 291 291 291 289 288 287 286 285 285 285 285 284 284 283 283 282 282 280 281 282 281 281 280
279 275 277 282 283 285 277 280 283 282 284 285 285 288 289 289 288 289 289 289 289 288 289 287 286 287 287 286 286 286 283 283 283 283 284 284 283 280 281 281 281 280 280 279
279 277 276 283 284 282 284 283 281 281 282 284 285 285 287 286 286 287 286 286 286 287 284 280 284 287 285 285 282 282 282 282 282 282 283 282 283 281 279 280 280 279 278 278
282 282 285 286 284 286 285 283 281 281 282 285 285 284 285 285 284 283 283 282 280 282 279 277 278 283 284 282 282 281 282 282 282 281 282 281 281 279 278 277 279 279 277 278
283 284 285 288 287 285 285 285 285 283 284 286 285 283 282 282 282 281 277 277 277 279 279 277 276 279 279 279 278 281 281 278 276 277 276 276 278 279 278 277 277 277 277 277
282 282 283 286 287 287 288 287 284 281 282 285 284 283 281 281 280 278 276 275 278 279 277 274 275 274 274 275 277 278 277 274 275 275 275 274 275 276 277 276 279 277 278 279
280 285 286 287 285 287 286 288 287 284 282 279 280 282 279 277 275 275 274 275 277 275 275 272 273 272 271 271 274 275 275 274 273 274 272 273 273 273 278 282 282 284 284 280
284 284 284 281 280 282 283 282 282 280 280 279 276 276 277 275 271 272 271 273 272 271 271 272 272 270 267 268 270 272 273 271 271 271 270 269 269 270 271 274 281 284 284 285
281 283 283 280 285 280 278 275 275 274 275 274 275 272 274 273 269 271 270 269 268 269 268 269 269 266 263 263 268 268 268 267 268 267 266 265 266 267 267 269 270 272 275 281
282 284 285 280 276 275 274 274 276 275 274 275 272 275 274 273 271 268 264 266 268 268 266 267 267 264 262 261 265 263 266 264 262 262 262 263 264 264 265 265 266 267 266 272
280 280 275 279 279 273 272 272 277 276 271 269 274 274 275 273 269 265 263 263 270 269 265 267 265 261 259 258 260 260 259 263 260 260 260 262 262 263 263 263 263 263 265 267
277 275 274 274 277 277 276 277 278 278 274 272 274 271 271 269 267 265 262 263 266 264 263 265 263 258 256 258 260 258 257 257 260 258 258 258 259 260 261 261 262 263 267 269
287 286 284 279 280 277 272 273 271 273 272 273 270 270 270 272 273 268 265 265 265 263 261 259 256 256 258 257 256 255 257 259 256 257 257 259 258 259 262 266 264 264 268 273
267 272 270 273 276 277 274 271 270 270 268 268 269 271 271 270 268 266 264 268 269 267 261 258 267 257 257 259 255 256 260 259 256 256 256 258 259 261 271 272 271 270 270 269
263 263 266 265 266 269 270 268 268 268 270 270 270 270 268 266 266 266 266 264 262 259 253 255 255 255 254 253 258 258 258 256 256 256 259 258 256 257 258 260 261 261 261 263
261 263 267 268 265 270 269 272 271 269 268 270 271 270 268 263 263 264 265 265 261 257 254 255 253 254 253 254 255 253 253 255 256 255 254 255 255 256 257 256 258 259 261 260
257 260 262 264 264 261 263 265 267 268 267 266 266 265 265 262 261 260 255 261 258 257 255 253 253 256 256 258 253 253 254 253 252 252 253 253 254 255 255 256 258 259 260 260
261 260 261 260 261 260 261 264 265 266 265 265 264 263 263 261 261 264 263 257 254 255 253 254 257 261 259 254 253 252 252 252 252 252 252 252 253 253 254 256 257 258 258 259
266 266 264 263 263 264 261 258 260 260 260 259 258 258 261 260 259 256 255 255 255 254 253 256 259 261 255 252 252 252 250 250 251 250 251 254 251 252 252 253 255 257 257 258
262 262 262 261 261 259 258 259 259 260 259 258 257 255 254 254 256 254 252 252 257 253 253 257 261 258 251 250 250 250 250 249 249 249 250 250 250 250 251 252 253 255 256 257
260 261 259 259 259 258 258 260 259 257 258 256 253 252 252 251 251 252 252 253 253 254 252 252 252 251 250 250 250 251 252 252 252 252 252 251 250 251 252 254 255 256 256 257
253 253 256 256 253 252 253 254 256 254 252 252 253 249 250 251 252 254 254 254 253 252 251 250 252 252 251 251 252 252 252 252 254 252 250 250 250 250 252 253 253 254 256 256
Wind_Speed
3 3 3 9 13 16 22 18 16 12 11 7 6 7 6 6 5 6 7 7 8 8 8 8 8 7 6 6 7 7 8 7 8 7 7 7 7 7 7 7 7 7 7 5
4 5 1 3 9 14 15 10 8 5 5 8 5 4 5 7 7 7 8 9 8 8 9 10 10 9 8 9 9 9 9 8 7 8 7 7 7 7 7 7 6 5 5 6
3 4 2 7 9 11 7 6 5 16 7 7 5 7 9 9 8 9 9 8 9 10 10 10 11 11 12 11 7 8 7 7 7 7 8 9 8 7 7 7 5 6 7 7
2 2 4 5 1 4 12 9 13 12 5 7 10 12 6 5 7 8 10 9 8 8 9 9 8 9 8 8 9 9 8 9 8 9 9 7 7 7 6 6 9 8 8 7
5 4 5 4 2 5 8 9 13 11 14 12 6 5 6 8 10 11 7 9 9 8 7 7 10 10 10 8 9 9 10 9 9 9 9 9 9 10 7 6 6 8 6 9
3 5 7 6 2 3 3 4 6 5 10 6 4 8 11 5 7 10 10 6 8 7 6 8 8 11 12 10 10 12 11 11 10 11 10 11 10 10 5 6 9 6 8 8
4 3 7 4 5 1 5 4 6 5 4 1 5 4 4 6 2 3 4 7 4 5 6 4 7 9 9 8 13 7 6 7 9 11 13 11 9 6 7 8 6 8 8 6
1 2 6 2 1 1 2 4 3 4 4 4 6 7 6 1 3 4 3 4 2 6 5 3 7 9 7 9 4 6 6 6 8 8 6 6 9 7 5 7 7 6 6 6
7 4 5 2 1 3 3 3 4 3 5 4 4 3 2 2 4 4 4 3 3 7 6 5 3 5 8 6 8 9 8 9 8 7 7 5 6 4 3 4 5 5 5 7
2 5 6 7 4 5 6 5 4 4 4 3 4 2 2 4 3 3 3 3 3 6 7 5 4 5 3 5 4 4 3 4 4 3 3 2 2 3 3 4 4 3 4 6
5 4 3 7 9 3 5 5 2 2 2 4 1 3 2 4 4 3 3 3 4 6 6 6 5 6 7 4 3 6 5 4 3 3 4 3 3 3 4 3 5 5 6 5
7 7 5 5 5 6 5 6 3 4 1 1 1 5 4 3 3 3 5 5 6 7 7 5 6 8 6 5 4 5 6 3 3 3 2 1 1 1 5 10 11 14 13 8
6 6 4 1 1 2 4 3 2 6 1 4 1 3 4 4 3 5 5 7 6 5 5 5 7 8 6 5 4 5 6 4 3 3 3 3 2 2 2 3 7 12 12 12
3 5 4 2 5 7 4 2 2 4 1 2 1 2 4 5 3 6 5 3 4 4 6 5 7 6 5 4 4 6 5 4 3 2 2 1 2 2 1 2 2 3 4 5
9 9 6 2 4 4 2 3 3 3 2 2 2 1 5 7 6 6 3 3 5 6 5 5 6 5 5 4 5 4 4 3 2 2 2 3 3 2 2 2 3 3 3 4
7 7 3 6 4 4 4 2 3 3 3 3 5 1 1 7 6 5 3 3 4 4 4 5 5 3 4 2 4 4 4 2 2 2 1 2 2 2 1 2 3 3 3 3
7 4 3 6 9 10 11 5 4 5 5 6 6 9 4 6 6 4 3 4 6 6 4 4 3 1 2 5 6 3 2 0 2 3 2 2 2 2 1 1 3 3 4 3
18 13 13 9 9 9 5 5 4 6 5 7 7 8 7 6 6 6 5 5 6 7 4 2 1 2 6 5 3 2 2 2 2 2 2 2 1 1 2 2 2 2 4 4
1 5 3 6 7 8 7 7 4 5 6 6 8 6 7 3 4 4 4 5 4 4 4 5 8 6 5 2 2 2 3 4 3 2 2 2 3 2 2 2 3 3 4 4
2 3 5 4 5 5 8 6 8 8 5 6 7 7 7 5 3 4 3 5 4 3 2 4 3 2 2 3 3 2 4 4 3 2 3 2 1 2 2 2 3 3 4 4
3 3 8 8 7 8 8 8 10 9 6 6 6 5 6 4 2 3 4 3 3 3 2 2 1 2 2 2 3 4 2 2 4 3 1 3 2 3 3 2 3 3 4 3
3 4 6 8 10 8 5 6 8 8 8 6 8 6 5 4 4 4 4 3 2 3 1 3 2 3 1 4 3 2 3 4 3 1 1 2 2 3 3 3 4 4 4 4
5 5 7 7 8 8 7 8 7 6 8 5 7 6 4 3 3 2 2 2 2 3 2 1 3 5 5 2 3 5 4 3 0 1 1 1 1 2 2 3 4 4 4 4
7 7 7 7 6 8 10 4 7 8 7 8 8 5 6 5 3 1 1 1 1 3 1 1 4 7 6 4 4 4 2 0 2 2 2 3 2 3 3 3 4 4 4 5
7 6 7 6 7 5 7 5 7 6 7 8 7 5 4 1 1 2 1 1 4 3 3 6 7 6 4 4 3 0 1 2 2 2 2 2 2 3 3 3 3 4 4 4
4 5 4 5 5 4 4 3 5 3 4 5 3 3 3 2 1 2 2 3 3 5 4 2 3 4 4 1 1 2 2 3 3 2 2 2 3 3 3 4 4 4 5 5
6 4 5 5 4 3 3 3 5 4 2 3 4 1 1 0 2 3 5 5 4 3 2 3 3 3 2 2 3 3 3 2 3 2 2 2 2 2 3 4 4 5 5 5
Wind_Direction
33 25 84 164 179 183 199 207 206 228 198 233 180 192 210 195 171 184 200 199 200 193 190 190 192 189 187 181 177 166 165 170 166 160 156 151 157 163 157 163 170 176 174 177
359 349 310 242 213 206 216 231 261 139 219 247 273 142 182 205 189 194 203 209 206 202 193 193 191 189 183 188 187 168 174 174 159 162 154 163 159 167 168 173 180 175 184 181
232 349 339 297 217 208 224 215 175 238 192 177 231 235 231 215 191 205 219 207 201 205 202 195 187 185 186 188 159 172 165 152 171 157 161 178 178 172 173 175 160 190 199 196
127 55 233 248 237 213 219 240 232 257 197 208 224 243 234 182 192 216 212 208 211 203 205 194 182 177 150 151 164 172 168 176 173 171 183 175 169 174 183 175 195 198 209 207
153 200 295 294 206 150 165 263 233 232 242 236 246 328 278 211 203 208 208 201 214 198 193 166 180 162 157 166 166 174 186 185 178 176 175 185 181 190 192 186 194 201 195 197
145 155 206 238 332 228 178 300 357 257 261 256 114 249 261 253 209 222 214 204 201 185 169 168 173 161 164 176 177 195 186 186 177 176 182 191 191 195 178 197 211 201 217 205
179 204 280 260 287 157 115 244 323 339 324 275 194 225 295 334 6 310 250 218 172 165 181 188 144 155 174 166 201 182 144 158 175 186 192 194 187 177 184 203 203 202 215 211
163 152 250 359 95 75 232 287 277 319 320 290 253 278 278 349 3 356 39 43 130 149 141 134 149 154 157 186 133 135 150 173 189 194 188 180 193 190 188 187 210 220 218 234
194 215 201 291 328 302 196 251 275 296 311 295 303 324 11 1 19 7 21 46 34 118 102 47 73 144 169 180 153 167 170 179 186 187 189 174 182 166 165 169 206 216 214 235
108 227 227 176 211 205 219 214 267 264 277 309 299 337 81 84 42 20 15 66 55 94 91 72 32 57 62 100 70 102 134 104 95 107 109 97 110 144 174 191 205 215 216 235
266 285 327 266 246 231 196 195 203 294 322 316 150 67 68 96 78 26 22 31 82 95 88 82 68 67 53 66 105 107 105 103 110 127 151 168 197 182 206 210 192 204 229 221
214 227 173 221 218 199 199 282 173 162 284 311 24 155 104 68 61 47 38 14 69 79 95 77 80 71 48 26 64 118 101 105 108 124 139 160 165 311 258 243 237 245 243 216
214 224 220 18 244 195 205 247 90 315 257 188 214 158 133 135 83 81 69 69 49 66 83 84 75 68 37 25 61 72 101 97 103 111 136 151 166 168 255 321 275 253 250 255
183 133 310 192 229 196 185 198 141 144 17 19 141 70 115 116 101 111 98 104 127 100 72 74 76 50 355 3 71 77 83 76 92 103 98 133 183 206 163 235 298 310 331 305
207 211 214 127 85 156 150 166 155 176 145 110 18 169 142 142 137 123 116 107 90 82 73 79 74 34 356 8 72 72 84 81 90 108 185 185 159 153 183 217 239 257 325 312
184 211 179 212 206 176 180 225 191 209 174 164 147 96 248 112 107 99 73 131 137 118 115 100 77 358 352 24 87 77 60 100 96 159 180 79 82 87 239 264 276 288 290 267
150 225 175 236 207 199 211 191 193 178 159 163 157 124 138 113 110 104 62 73 101 112 112 100 139 251 82 57 61 64 72 210 141 83 74 107 123 184 122 90 279 264 255 262
213 222 193 185 184 188 200 200 169 159 164 141 128 134 140 178 151 150 139 151 118 87 57 25 249 58 68 59 75 157 160 123 63 82 60 59 90 87 200 220 259 291 289 279
205 178 159 158 172 174 157 158 152 115 108 118 129 140 121 109 102 125 156 133 135 121 15 7 20 33 51 15 149 160 101 79 58 45 59 8 35 314 325 3 349 330 334 317
160 95 107 110 83 116 117 100 104 95 86 89 102 99 103 114 139 125 110 105 72 89 354 353 332 351 356 357 35 61 70 75 67 19 24 5 20 341 344 353 307 296 301 298
153 132 129 123 93 80 97 128 126 117 108 96 88 104 114 107 61 90 106 94 41 18 341 3 1 319 358 32 57 57 59 68 60 44 340 281 15 2 352 333 316 307 308 303
68 80 98 107 102 91 59 87 104 118 113 113 105 112 115 100 93 67 46 59 2 345 32 45 348 305 44 54 62 72 49 54 62 281 263 18 31 358 340 335 319 306 303 300
69 91 90 71 105 110 78 60 65 83 92 93 94 97 89 88 71 102 112 12 353 348 51 24 326 46 53 63 55 58 53 49 228 246 23 13 354 350 335 321 306 303 306 308
87 80 87 92 100 99 90 43 66 67 83 79 81 69 101 100 72 38 29 40 14 62 33 352 40 47 50 49 49 49 42 331 31 19 3 4 355 342 327 304 311 311 309 302
87 88 94 94 88 82 102 104 95 88 86 77 74 70 78 61 156 185 180 96 51 66 45 26 38 45 48 42 37 333 15 29 11 24 3 343 318 307 293 301 290 291 292 298
85 89 77 60 92 105 109 107 103 103 111 99 57 41 48 35 79 98 76 74 67 52 43 9 30 45 49 35 21 29 28 19 22 1 347 324 310 302 307 310 314 313 304 295
65 61 92 78 36 60 76 99 129 139 104 102 105 356 67 84 70 76 60 52 44 38 30 27 38 45 46 35 30 26 26 12 1 345 328 303 308 298 311 300 291 286 285 283